Regional Weather Roundup
Issued by NWS Upton, NY

Current Version | Previous Version | Text Only | Print | Product List | Glossary On
Versions: 1 2 3 4 5 6 7 8 9 10 11 12 13 14 15 16 17 18 19 20 21 22 23 24 25 26 27 28 29 30 31 32 33 34 35 36 37 38 39 40 41 42 43 44 45 46 47 48
000 ASUS41 KOKX 130904 RWROKX REGIONAL WEATHER ROUNDUP NATIONAL WEATHER SERVICE NEW YORK NY 400 AM EST SAT FEB 13 2016 NOTE: "FAIR" INDICATES FEW OR NO CLOUDS BELOW 12,000 FEET WITH NO SIGNIFICANT WEATHER AND/OR OBSTRUCTIONS TO VISIBILITY. NYZ071-072-176-178-NJZ106-104-131000- NEW YORK CITY METRO AREA CITY SKY/WX TMP DP RH WIND PRES REMARKS CENTRAL PARK CLEAR 21 12 68 VRB5 29.88F WCI 15 LAGUARDIA APRT PTCLDY 22 12 65 W15 29.87F WCI 9 KENNEDY INTL PTCLDY 23 12 62 W14 29.89F WCI 11 NEWARK/LIBERTY PTCLDY 20 13 74 W12 29.88F WCI 8 BRNX BOT. GARD N/A 21 14 73 SW13 29.88S WCI 9 TETERBORO CLEAR 19 11 70 SW6 29.87F WCI 11 $$ NYZ177-179-078>081-131000- LONG ISLAND NEW YORK CITY SKY/WX TMP DP RH WIND PRES REMARKS FARMINGDALE CLEAR 22 11 62 W9 29.87F WCI 12 ISLIP PTCLDY 20 10 65 W7 29.85F WCI 11 SHIRLEY CLOUDY 21 11 65 W10 29.86S WCI 10 RIVERHEAD N/A 25 9 50 W13 29.82S WCI 13 WESTHAMPTON CLOUDY 18 10 71 W6 29.86F WCI 10 EAST HAMPTON CLOUDY 22 11 61 NW6 29.83F WCI 15 MONTAUK POINT N/A 24 11 57 NW13G23 29.84S WCI 12 $$ NYZ052-065-067-131000- HUDSON VALLEY CITY SKY/WX TMP DP RH WIND PRES REMARKS WHITE PLAINS PTCLDY 18 11 74 W9 29.82F WCI 7 NEWBURGH PTCLDY 16 -2 45 W9 29.83S WCI 4 MONTGOMERY CLOUDY 15 12 88 SW6 29.82F WCI 6 POUGHKEEPSIE PTCLDY 20 12 71 SW9 29.84F WCI 9 ALBANY CLEAR 14 5 67 CALM 29.82F $$ NJZ001-105-106-008-010-013-015-019>022-104-131000- NEW JERSEY CITY SKY/WX TMP DP RH WIND PRES REMARKS NEWARK/LIBERTY PTCLDY 20 13 74 W12 29.88F WCI 8 TETERBORO CLEAR 19 11 70 SW6 29.87F WCI 11 CALDWELL CLEAR 18 13 80 CALM 29.87F MORRISTOWN CLEAR 18 12 79 SW5 29.87F WCI 11 SOMERVILLE PTCLDY 17 12 80 CALM 29.88S SUSSEX MOCLDY 15 10 80 SW5 29.83S WCI 8 ANDOVER N/A 14 12 92 CALM 29.85S TRENTON CLEAR 20 14 77 W6 29.90F WCI 12 MILLVILLE CLEAR 17 13 84 W7 29.95S WCI 8 ATLANTIC CITY CLEAR 20 17 88 W7 29.93F WCI 11 WRIGHTSTOWN PTCLDY 20 20 98 W8 29.88F WCI 10 TOMS RIVER PTCLDY 16 12 86 W6 29.92S WCI 7 BELMAR PTCLDY 18 9 68 W7 29.88F WCI 8 $$ PAZ047>061-062-071-131000- EASTERN PENNSYLVANIA CITY SKY/WX TMP DP RH WIND PRES REMARKS PHILADELPHIA PTCLDY 21 14 74 W13 29.95S WCI 9 ALLENTOWN CLEAR 16 11 80 W6 29.89S WCI 7 SCRANTON CLOUDY 16 11 80 SW8 29.84R WCI 5 $$ CTZ002-004>006-009-010-012-RIZ004-006-007-MAZ004-011-015-131000- SOUTHERN NEW ENGLAND IN CT CITY SKY/WX TMP DP RH WIND PRES REMARKS BRADLEY INTL CLOUDY 14 7 73 CALM 29.81F HARTFORD CLOUDY 20 7 57 W5 29.84F WCI 13 DANBURY CLEAR 15 7 70 W8 29.83S WCI 4 WTRBRY/OXFORD MOCLDY 16 1 53 W3 29.79S BRIDGEPORT PTCLDY 21 12 68 W10 29.85F WCI 10 MERIDEN CLOUDY 15 9 76 CALM 29.83F NEW HAVEN CLOUDY 20 10 65 W7 29.84F WCI 11 CHESTER PTSUNNY 19 10 68 W5 29.81S WCI 13 GROTON CLOUDY 20 12 71 W8 29.83F WCI 10 WILLIMANTIC CLOUDY 12 6 77 CALM 29.82S IN RI CITY SKY/WX TMP DP RH WIND PRES REMARKS PROVIDENCE CLOUDY 19 11 70 W5 29.82F WCI 12 BLOCK ISLAND CLOUDY 21 10 63 NW8 29.80S WCI 12 WESTERLY CLOUDY 19 12 74 CALM 29.83F IN MA CITY SKY/WX TMP DP RH WIND PRES REMARKS BOSTON CLOUDY 21 9 59 W8 29.81F WCI 11 WORCESTER CLOUDY 13 5 70 W9 29.72F WCI 1 WESTFIELD CLOUDY 8 4 83 CALM 29.81F PROVINCETOWN LGT SNOW 22 18 85 W10 29.80F FOG WCI 11 NANTUCKET LGT SNOW 24 19 81 NW13 29.78F WCI 12 $$ ANZ330-335-338-340-345-350-353-355-131000- COASTAL MARINE OBSERVATIONS STATION/POSITION TIME SKY/WX TEMP WIND PRES VSBY WAVE AIR SEA DIR/SP/G HT/PER (UTC) (F) (DEG/KT/KT) (MB) (MI) (FT/S) NY HARB ENTRANCE 0750 24 43 280/ 19/ 25 1011.9 3/ 3 4S FIRE IS NOT AVBL 20S FIRE ISLAND 0750 26 41 290/ 23/ 27 1011.4 4/ 5 GREAT SOUTH BAY NOT AVBL 23SW MTP 0850 26 44 290/ 19/ 23 1009.8 4/ 4 HUDSON CANYON 0750 30 48 1010.8 5/ 5 KINGS POINT 0800 23 36 320/ 12/ 16 1011.2 EXECUTION ROCKS NOT AVBL CENTRAL LI SOUND 0800 25 280/ 19/ 25 N/A 3/ 4 EASTERN LI SOUND 0800 25 41 290/ 14/ 17 N/A ROBBINS REEF 0800 22 270/ 15/ 21 1011.2 $$ >>>>>>>>>>>>>>>>>>>>>>>>>>>> KEY <<<<<<<<<<<<<<<<<<<<<<<<<<< > < > SKY/WX - SKY CONDITION/PRESENT WEATHER < > TMP - TEMPERATURE IN FAHRENHEIT < > DP - DEWPOINT IN FAHRENHEIT < > RH - RELATIVE HUMIDITY IN PERCENT < > WIND - DIRECTION AND SPEED IN MPH < > PRES - MEAN SEA LEVEL PRESSURE IN INCHES OF HG < > WCI - WIND CHILL INDEX < > VSB - VISIBILITY IN MILES < > HX - HEAT INDEX < > TC - TEMPERATURE IN CELSIUS < > VRB - VARIABLE WIND DIRECTION < > < >>>>>>>>>>>>>>>>>>>>>>>>>>>> KEY <<<<<<<<<<<<<<<<<<<<<<<<<<<

USA.gov is the U.S. government's official web portal to all federal, state and local government web resources and services.